Location: Althorst
(53.6379°N, 10.7715°E)
Time: 04:31:40
(UTC+00:00)

Cosmos 1553 Rocket - Pass Details

Date: 10 December 2019
Orbit: 942 x 1008 km, 82.9° (Epoch: 28 January)

Event Time Altitude Azimuth Distance (km) Brightness Sun altitude
Rises 17:36:10 0° 349° (N) 3,713 7.1 -22.1°
Reaches altitude 10° 17:38:41 10° 350° (N) 2,769 6.4 -22.5°
Maximum altitude 17:45:05 82° 78° (ENE) 1,019 3.9 -23.4°
Drops below altitude 10° 17:51:30 10° 167° (SSE) 2,779 6.3 -24.4°
Sets 17:54:02 0° 169° (SSE) 3,726 7.0 -24.8°
